Regional Weather Roundup
Issued by NWS

Home | Current Version | Previous Version | Graphics & Text | Print | Product List | Glossary On
Versions: 1 2 3 4 5 6 7 8 9 10 11 12 13 14 15 16 17 18 19 20 21 22 23 24 25 26 27 28 29 30 31 32 33 34 35 36 37 38 39 40 41 42 43 44 45 46 47 48 49 50
000
ASUS43 KLMK 241202
RWRKY
KENTUCKY REGIONAL WEATHER ROUNDUP
NATIONAL WEATHER SERVICE LOUISVILLE KY
800 AM EDT TUE MAY 24 2016

NOTE "FAIR" INDICATES FEW OR NO CLOUDS BELOW 12,000 FEET
WITH NO SIGNIFICANT WEATHER AND/OR OBSTRUCTIONS TO VISIBILITY.

KYZ001>023-026-027-061>063-070>075-241300-
WESTERN AND SOUTH CENTRAL KENTUCKY

CITY           SKY/WX    TMP DP  RH WIND       PRES   REMARKS
PADUCAH        CLOUDY    63  58  83 SE6       30.03R
HENDERSON      SUNNY     61  52  72 CALM      30.05R
OWENSBORO      MOSUNNY   61  51  69 SE5       30.08R
HOPKINSVILLE   NOT AVBL
BOWLING GREEN  SUNNY     57  53  86 CALM      30.10R
GLASGOW        NOT AVBL
$$

KYZ024-025-028>034-038-045-046-053-241300-
NORTH CENTRAL KENTUCKY

CITY           SKY/WX    TMP DP  RH WIND       PRES   REMARKS
LOUISVILLE/SDF MOSUNNY   59  52  77 E5        30.09R
LOUISVILLE/LOU SUNNY     59  51  75 CALM      30.11R
FORT KNOX      NOT AVBL
$$

KYZ035>037-039>044-047>052-055>060-089>105-241300-
NORTHEAST KENTUCKY

CITY           SKY/WX    TMP DP  RH WIND       PRES   REMARKS
LEXINGTON      SUNNY     58  52  80 S3        30.12R
COVINGTON      MOSUNNY   57  53  86 CALM      30.10R
FRANKFORT      SUNNY     57  51  80 CALM      30.10R
$$

KYZ054-064>069-076>088-106>120-241300-
SOUTHEAST KENTUCKY

CITY           SKY/WX    TMP DP  RH WIND       PRES   REMARKS
JACKSON        SUNNY     57  50  77 CALM      30.14R
LONDON         SUNNY     54  50  86 CALM      30.14R
SOMERSET       NOT AVBL
MIDDLESBORO    SUNNY     51  49  94 CALM      30.17R
MONTICELLO     SUNNY     55  51  86 NW9       30.15R
$$





USA.gov is the U.S. government's official web portal to all federal, state and local government web resources and services.